[[{"header":{"parameterUnit":"m.s-1","parameterCategory":2,"la1":30.2991,"la2":30.254,"lo1":-89.0895,"lo2":-89.0444,"dy":0.0017,"dx":0.0017,"nx":28,"ny":28,"refTime":"2023-11-03T21:00:00:Z","depth":"0","parameterNumber":2,"parameterNumberName":"U-component_of_CURRENTS"},"data":[0,0,0,0,0,0,0,0,0,0,0,0,0,0,0,0,0,0,0,0,0,0,0,0,0,0,0,0,0,0,0,0,0,0,0,0,0,0,0,0,0,0,0,0,0,0,0,0,0,0,0,0,0,0,0,0,0,0,0.2579,0.258,0,0.2607,0.2607,0.2607,0.2613,0.2614,0.2614,0.2614,0.2604,0.2604,0.2603,0,0,0,0,0,0,0,0,0,0,0,0,0,0.2545,0.2545,0.2579,0.258,0.258,0.2607,0.2607,0.2607,0.2613,0.2614,0.2614,0.2614,0.2604,0.2604,0.2603,0,0,0,0,0,0,0,0,0,0,0,0,0,0.2562,0.2546,0.2579,0.2589,0.259,0.2607,0.2607,0.2607,0.2613,0.2614,0.2614,0.2614,0.2604,0.2604,0.2603,0.2599,0,0,0.2602,0.2602,0,0,0,0,0,0,0,0,0.2561,0.2563,0.2587,0.2588,0.259,0.2609,0.2592,0.2603,0.2613,0.2602,0.2614,0.2614,0.2604,0.2603,0.2605,0.2598,0.2598,0.2602,0.2602,0.2601,0.2601,0,0,0,0,0,0,0,0.256,0.2562,0.2588,0.2588,0.2589,0.2596,0.2598,0.2594,0.2599,0.2603,0.2604,0.2611,0.2604,0.2606,0.2605,0.2598,0.2602,0.2601,0.2601,0.2601,0.2613,0.2613,0,0,0,0,0,0,0.2561,0.2561,0.2587,0.2589,0.2578,0.2597,0.2599,0.2601,0.26,0.2601,0.2611,0.2611,0.2606,0.2606,0.2605,0.2632,0.2601,0.2601,0.2601,0.2612,0.2613,0.2614,0,0,0,0,0,0,0.256,0.2563,0.2586,0.2578,0.2582,0.2598,0.2599,0.2601,0.2604,0.2607,0.2607,0.2612,0.2606,0.2605,0.2607,0.263,0.2601,0.26,0.2612,0.2612,0.2613,0.2665,0,0,0,0,0,0,0.2559,0.2562,0.2562,0.2578,0.2582,0.2599,0.2599,0.2602,0.2609,0.261,0.2608,0.2607,0.2606,0.2607,0.2606,0.2629,0.26,0.2611,0.2612,0.2613,0.2663,0.2668,0.2672,0,0,0,0,0,0.2558,0.2559,0.2562,0.2565,0.2582,0.2599,0.2602,0.2612,0.2609,0.2613,0.2613,0.2607,0.2614,0.2607,0.2606,0.2629,0.261,0.2612,0.2613,0.2661,0.2667,0.2672,0,0,0,0,0,0,0.2539,0.256,0.2564,0.2569,0.2585,0.2601,0.2607,0.2611,0.2614,0.2613,0.261,0.261,0.2624,0.2613,0.2606,0.2635,0.2613,0.2614,0.265,0.2655,0.266,0.2672,0.26,0,0,0,0,0,0.2536,0.2544,0.2564,0.2568,0.2576,0.259,0.2597,0.2606,0.2613,0.2614,0.2616,0.2618,0.2628,0.2629,0.2633,0.2642,0.2651,0.2656,0.2661,0.2665,0.2673,0.2702,0.2711,0.2618,0.2618,0.2618,0,0,0.2527,0.2543,0.2544,0.2565,0.2576,0.2599,0.2594,0.2608,0.263,0.2612,0.2633,0.2632,0.2633,0.2653,0.2658,0.2646,0.2699,0.2667,0.267,0.2676,0.2705,0.2714,0.2722,0.2619,0.2619,0.2619,0,0,0.2524,0.253,0.254,0.2559,0.2585,0.26,0.2604,0.2624,0.2635,0.2652,0.2653,0.2664,0.2669,0.2684,0.269,0.2718,0.2723,0.2718,0.2752,0.2781,0.2789,0.2797,0.2835,0.2845,0.272,0.272,0.272,0,0.2511,0.2533,0.2544,0.2569,0.259,0.2602,0.2625,0.2642,0.2661,0.2677,0.2664,0.2695,0.2689,0.2729,0.2741,0.2731,0.275,0.2733,0.2789,0.2796,0.2803,0.284,0.285,0.2723,0.2723,0.2722,0.2722,0,0.2526,0.2545,0.2555,0.2593,0.2615,0.2636,0.2668,0.2689,0.2701,0.2719,0.2753,0.2751,0.2773,0.2774,0.2766,0.2815,0.2815,0.2793,0.2778,0.2816,0.2852,0.2862,0.2727,0.2726,0.2725,0.2724,0,0,0.2491,0.2551,0.2555,0.258,0.2632,0.2649,0.2697,0.2741,0.2769,0.279,0.2829,0.2848,0.2849,0.2855,0.2852,0.2871,0.2933,0.2854,0.2855,0.2899,0.3012,0.3067,0.3083,0.2923,0.2925,0.2926,0.3024,0,0.2499,0.2544,0.2578,0.2623,0.2651,0.2692,0.2735,0.2778,0.2806,0.2845,0.2867,0.2893,0.2881,0.2888,0.2915,0.2925,0.296,0.2909,0.2962,0.2964,0.3014,0.3096,0.2947,0.3026,0.3034,0.3035,0.3036,0,0.2506,0.2539,0.2582,0.2647,0.2662,0.269,0.2759,0.2797,0.2864,0.2888,0.2932,0.2947,0.3,0.2965,0.3037,0.3007,0.3021,0.3024,0.3027,0.3068,0.3039,0.2986,0.3044,0.2967,0.3052,0.3051,0.305,0,0.2478,0.2542,0.2574,0.2597,0.2671,0.2698,0.2736,0.2804,0.2852,0.2911,0.2956,0.3008,0.3043,0.3073,0.3111,0.3073,0.3185,0.3129,0.3198,0.3202,0.308,0.3071,0.3074,0.3183,0.3183,0.3182,0.3182,0,0.2474,0.2498,0.2559,0.2576,0.2615,0.2675,0.2723,0.2769,0.2856,0.2916,0.2971,0.3041,0.307,0.3145,0.3152,0.324,0.3231,0.3236,0.3243,0.3097,0.3089,0.302,0.2989,0.3186,0.3185,0.3184,0.3184,0,0.2429,0.2474,0.251,0.258,0.26,0.2621,0.2716,0.2756,0.2846,0.2931,0.2961,0.3085,0.3194,0.3249,0.3305,0.331,0.3277,0.3388,0.3231,0.322,0.3207,0.3185,0.31,0.3004,0.3475,0.3477,0.3479,0,0.2406,0.2423,0.2489,0.2507,0.2531,0.2581,0.2621,0.2725,0.2781,0.2964,0.3006,0.3161,0.3247,0.3399,0.3435,0.3499,0.3367,0.3396,0.3299,0.3227,0.3205,0.3053,0.2965,0.315,0.3149,0.3148,0.3147,0,0.2361,0.2384,0.2414,0.2444,0.2477,0.2528,0.2596,0.2642,0.2776,0.2867,0.3,0.3088,0.3291,0.3315,0.3446,0.3455,0.3233,0.3386,0.3321,0.2987,0.2806,0.2708,0.308,0.314,0.314,0.3141,0.3141,0.3142,0.2319,0.2319,0.2351,0.2374,0.2411,0.2443,0.2447,0.2544,0.262,0.2722,0.2893,0.2986,0.3139,0.3318,0.3322,0.3277,0.3248,0.3152,0.3144,0.3007,0.2872,0.3271,0.334,0.3342,0.3343,0.3345,0.3346,0,0.2251,0.2257,0.2279,0.229,0.2292,0.2348,0.2405,0.2393,0.2424,0.2575,0.267,0.2837,0.2903,0.3023,0.3104,0.302,0.2809,0.2934,0.2629,0.2564,0.2923,0.2868,0.2824,0.2824,0.2824,0.2824,0.2824,0.2824,0.2212,0.2196,0.2205,0.2166,0.2175,0.2132,0.214,0.2145,0.2215,0.2292,0.2392,0.252,0.2782,0.2922,0.288,0.28,0.2559,0.2451,0.2464,0.2678,0.2694,0.2709,0.2648,0.2558,0.2558,0.1921,0.1916,0.1913]},{"header":{"parameterUnit":"m.s-1","parameterCategory":2,"la1":30.2991,"la2":30.254,"lo1":-89.0895,"lo2":-89.0444,"dy":0.0017,"dx":0.0017,"nx":28,"ny":28,"refTime":"2023-11-03T21:00:00:Z","depth":"0","parameterNumber":3,"parameterNumberName":"V-component_of_CURRENTS"},"data":[0,0,0,0,0,0,0,0,0,0,0,0,0,0,0,0,0,0,0,0,0,0,0,0,0,0,0,0,0,0,0,0,0,0,0,0,0,0,0,0,0,0,0,0,0,0,0,0,0,0,0,0,0,0,0,0,0,0,-0.0386,-0.0386,0,-0.0426,-0.0427,-0.0427,-0.0474,-0.0474,-0.0475,-0.0475,-0.054,-0.0541,-0.0542,0,0,0,0,0,0,0,0,0,0,0,0,0,-0.0387,-0.0387,-0.0386,-0.0387,-0.0387,-0.0426,-0.0427,-0.0427,-0.0474,-0.0474,-0.0475,-0.0476,-0.0539,-0.0541,-0.0542,0,0,0,0,0,0,0,0,0,0,0,0,0,-0.0404,-0.0387,-0.0386,-0.0414,-0.0416,-0.0426,-0.0427,-0.0428,-0.0473,-0.0474,-0.0475,-0.0476,-0.0539,-0.0541,-0.0542,-0.0536,0,0,-0.0548,-0.0549,0,0,0,0,0,0,0,0,-0.0403,-0.0404,-0.0409,-0.0412,-0.0415,-0.0445,-0.0451,-0.0465,-0.0473,-0.0453,-0.0475,-0.0476,-0.0509,-0.0513,-0.052,-0.0539,-0.0542,-0.0548,-0.0549,-0.055,-0.055,0,0,0,0,0,0,0,-0.0402,-0.0403,-0.0403,-0.041,-0.0413,-0.0437,-0.044,-0.0454,-0.0477,-0.0455,-0.0458,-0.046,-0.0511,-0.0518,-0.0522,-0.0543,-0.0548,-0.055,-0.0551,-0.0551,-0.0598,-0.0598,0,0,0,0,0,0,-0.0391,-0.0401,-0.0402,-0.0404,-0.0409,-0.0436,-0.0439,-0.0435,-0.0477,-0.0483,-0.0459,-0.0462,-0.0515,-0.052,-0.0525,-0.0552,-0.055,-0.0551,-0.0552,-0.0597,-0.0598,-0.0598,0,0,0,0,0,0,-0.0391,-0.039,-0.04,-0.0403,-0.0406,-0.0434,-0.043,-0.0436,-0.0443,-0.0479,-0.0487,-0.0461,-0.0516,-0.0522,-0.0537,-0.0554,-0.0552,-0.0554,-0.0597,-0.0597,-0.0598,-0.0586,0,0,0,0,0,0,-0.039,-0.039,-0.0387,-0.0402,-0.0405,-0.0402,-0.0429,-0.0436,-0.0442,-0.0447,-0.0483,-0.049,-0.0517,-0.0534,-0.0539,-0.0556,-0.0555,-0.0597,-0.0597,-0.0598,-0.0587,-0.0586,-0.0586,0,0,0,0,0,-0.039,-0.0377,-0.0386,-0.0387,-0.0399,-0.0402,-0.0406,-0.043,-0.0441,-0.0441,-0.0467,-0.0489,-0.054,-0.0535,-0.0541,-0.0559,-0.0597,-0.0597,-0.0598,-0.0587,-0.0586,-0.0586,0,0,0,0,0,0,-0.0372,-0.0381,-0.0391,-0.0381,-0.039,-0.0409,-0.041,-0.0423,-0.0442,-0.0447,-0.0482,-0.0491,-0.0515,-0.053,-0.0524,-0.0573,-0.0575,-0.0577,-0.0565,-0.0565,-0.0565,-0.0574,-0.0557,0,0,0,0,0,-0.0366,-0.0362,-0.0373,-0.0365,-0.0368,-0.0387,-0.0392,-0.0405,-0.0422,-0.0431,-0.0457,-0.0487,-0.052,-0.0535,-0.056,-0.0576,-0.0596,-0.0594,-0.0594,-0.0593,-0.0604,-0.0643,-0.0647,-0.0599,-0.0599,-0.0599,0,0,-0.0356,-0.0361,-0.0359,-0.0362,-0.0372,-0.0372,-0.0392,-0.0392,-0.0402,-0.0434,-0.0453,-0.0482,-0.0522,-0.0551,-0.0564,-0.0567,-0.0614,-0.0594,-0.0593,-0.0605,-0.0644,-0.0648,-0.0653,-0.0599,-0.0599,-0.0599,0,0,-0.0331,-0.0338,-0.0326,-0.0332,-0.034,-0.0355,-0.0351,-0.0366,-0.0386,-0.0399,-0.0437,-0.0472,-0.0504,-0.0548,-0.0573,-0.0582,-0.0609,-0.0589,-0.0599,-0.0636,-0.0641,-0.0645,-0.066,-0.0666,-0.0592,-0.0592,-0.0592,0,-0.0317,-0.0307,-0.0323,-0.0314,-0.032,-0.0344,-0.0336,-0.0356,-0.0377,-0.0398,-0.0403,-0.0479,-0.0509,-0.0568,-0.0581,-0.0584,-0.06,-0.0598,-0.0637,-0.0641,-0.0646,-0.0661,-0.0667,-0.0592,-0.0592,-0.0592,-0.0592,0,-0.0284,-0.0281,-0.0272,-0.0276,-0.0285,-0.0278,-0.0307,-0.0323,-0.0347,-0.0376,-0.0428,-0.0473,-0.0521,-0.0542,-0.0569,-0.0625,-0.0623,-0.0629,-0.0638,-0.065,-0.0664,-0.0671,-0.0591,-0.0591,-0.0591,-0.0591,0,0,-0.0239,-0.0247,-0.0244,-0.0244,-0.0265,-0.0263,-0.0289,-0.0322,-0.0336,-0.0383,-0.0411,-0.0492,-0.052,-0.0551,-0.0591,-0.0637,-0.0682,-0.0651,-0.0653,-0.0666,-0.0751,-0.0678,-0.0679,-0.0696,-0.0698,-0.0699,-0.0741,0,-0.0209,-0.0185,-0.0205,-0.0194,-0.0188,-0.0228,-0.0249,-0.0287,-0.0322,-0.0352,-0.0433,-0.0463,-0.0522,-0.0535,-0.06,-0.065,-0.0703,-0.0669,-0.0737,-0.0739,-0.0674,-0.0686,-0.0604,-0.0629,-0.0748,-0.0749,-0.075,0,-0.0171,-0.0163,-0.0142,-0.0159,-0.016,-0.0162,-0.0199,-0.0217,-0.0284,-0.0313,-0.038,-0.0421,-0.0504,-0.0536,-0.0663,-0.0637,-0.0703,-0.0751,-0.0753,-0.0699,-0.068,-0.064,-0.0638,-0.0795,-0.0761,-0.076,-0.076,0,-0.0131,-0.0123,-0.0106,-0.0107,-0.0127,-0.0136,-0.0153,-0.0206,-0.0208,-0.0276,-0.0267,-0.039,-0.0407,-0.0531,-0.0625,-0.0647,-0.0743,-0.0777,-0.0784,-0.0778,-0.0729,-0.0716,-0.0889,-0.0881,-0.0881,-0.0881,-0.0881,0,-0.0094,-0.0081,-0.008,-0.0069,-0.0048,-0.0088,-0.0076,-0.0114,-0.0143,-0.0112,-0.0232,-0.021,-0.0405,-0.0472,-0.0601,-0.069,-0.0723,-0.0789,-0.0789,-0.0718,-0.0705,-0.0855,-0.0947,-0.0883,-0.0882,-0.0882,-0.0882,0,-0.0056,-0.0055,-0.0029,-0.0032,-0.0024,-0.0008,0.0003,0.002,-0.0023,0.0022,0.0017,-0.0072,-0.014,-0.0318,-0.0486,-0.0611,-0.0788,-0.0758,-0.0647,-0.0633,-0.0786,-0.0879,-0.103,-0.1087,-0.0785,-0.0783,-0.0782,0,-0.0035,-0.0016,0.0018,0.0056,0.0061,0.0086,0.0118,0.0085,0.0127,0.0141,0.019,0.0128,0.014,-0.0086,-0.031,-0.0514,-0.0703,-0.0611,-0.0652,-0.0787,-0.0893,-0.0966,-0.1011,-0.0584,-0.0581,-0.0579,-0.0577,0,0.0009,0.0025,0.0056,0.0139,0.0191,0.0245,0.0295,0.0353,0.0356,0.0424,0.0519,0.0532,0.0338,0.0185,-0.0117,-0.0277,-0.0685,-0.0569,-0.0755,-0.0789,-0.0837,-0.089,-0.0558,-0.0557,-0.0559,-0.056,-0.0561,-0.0562,0.0058,0.0099,0.0161,0.0245,0.0313,0.042,0.0504,0.0591,0.0716,0.0865,0.0824,0.0915,0.0606,0.0237,-0.0023,-0.0463,-0.0517,-0.0615,-0.0726,-0.0796,-0.083,-0.0434,-0.04,-0.0401,-0.0402,-0.0403,-0.0403,0,0.0148,0.0197,0.0269,0.0391,0.0502,0.0504,0.0647,0.0765,0.0983,0.1117,0.1235,0.1174,0.0812,0.0356,-0.0234,-0.0572,-0.0729,-0.0785,-0.0913,-0.0961,-0.0642,-0.0612,-0.0565,-0.0565,-0.0564,-0.0564,-0.0564,-0.0564,0.0205,0.0308,0.035,0.0558,0.0642,0.0811,0.0914,0.1095,0.1229,0.1465,0.1558,0.1573,0.1225,0.0119,-0.0671,-0.0865,-0.1135,-0.1144,-0.133,-0.1156,-0.1151,-0.1146,-0.1142,-0.1207,-0.1207,-0.1578,-0.1582,-0.1585]}],[{"header":{"parameterUnit":"m.s-1","parameterCategory":2,"la1":30.2991,"la2":30.254,"lo1":-89.0895,"lo2":-89.0444,"dy":0.0017,"dx":0.0017,"nx":28,"ny":28,"refTime":"2023-11-03T21:00:00:Z","depth":"2","parameterNumber":2,"parameterNumberName":"U-component_of_CURRENTS"},"data":[0,0,0,0,0,0,0,0,0,0,0,0,0,0,0,0,0,0,0,0,0,0,0,0,0,0,0,0,0,0,0,0,0,0,0,0,0,0,0,0,0,0,0,0,0,0,0,0,0,0,0,0,0,0,0,0,0,0,0.2221,0.2222,0,0.2264,0.2265,0.2265,0.2291,0.2291,0.2291,0.2292,0.2304,0.2304,0.2304,0,0,0,0,0,0,0,0,0,0,0,0,0,0.219,0.219,0.2221,0.2222,0.2223,0.2264,0.2265,0.2265,0.2291,0.2291,0.2291,0.2292,0.2304,0.2304,0.2304,0,0,0,0,0,0,0,0,0,0,0,0,0,0.2214,0.219,0.2221,0.2242,0.2244,0.2264,0.2265,0.2265,0.2291,0.2291,0.2292,0.2292,0.2304,0.2304,0.2304,0.2297,0,0,0.2305,0.2305,0,0,0,0,0,0,0,0,0.2212,0.2214,0.2238,0.224,0.2243,0.2274,0.2258,0.2275,0.2291,0.2271,0.2292,0.2292,0.2292,0.2293,0.2298,0.2298,0.2298,0.2305,0.2305,0.2305,0.2305,0,0,0,0,0,0,0,0.221,0.2213,0.2237,0.2239,0.2242,0.2259,0.2262,0.2262,0.2277,0.2273,0.2275,0.2283,0.2293,0.2298,0.2299,0.2298,0.2305,0.2305,0.2305,0.2305,0.2352,0.2353,0,0,0,0,0,0,0.2206,0.2211,0.2236,0.2238,0.223,0.2259,0.2263,0.2262,0.2278,0.2281,0.2282,0.2284,0.2298,0.2299,0.2299,0.235,0.2305,0.2305,0.2305,0.235,0.2352,0.2353,0,0,0,0,0,0,0.2205,0.2208,0.2234,0.2228,0.2232,0.2259,0.2259,0.2263,0.2278,0.2285,0.2288,0.2294,0.2298,0.2299,0.2307,0.2348,0.2305,0.2305,0.2349,0.2351,0.2353,0.2413,0,0,0,0,0,0,0.2204,0.2207,0.2212,0.2227,0.2232,0.2254,0.2259,0.2264,0.2282,0.2285,0.2296,0.2297,0.2299,0.2307,0.2308,0.2347,0.2305,0.2348,0.235,0.2352,0.2409,0.2417,0.2423,0,0,0,0,0,0.2203,0.2208,0.2212,0.2215,0.2236,0.2254,0.2259,0.2278,0.2282,0.2292,0.2298,0.2297,0.2322,0.2308,0.2308,0.2349,0.2347,0.2349,0.2352,0.2407,0.2415,0.2422,0,0,0,0,0,0,0.2194,0.2212,0.2216,0.2226,0.2242,0.2259,0.2275,0.2281,0.2294,0.23,0.23,0.2301,0.233,0.2323,0.2307,0.2369,0.2339,0.2342,0.2381,0.2389,0.2396,0.2453,0.2305,0,0,0,0,0,0.2194,0.2206,0.2221,0.223,0.224,0.2257,0.2269,0.2281,0.2293,0.23,0.2309,0.2322,0.2339,0.2349,0.2359,0.2381,0.2396,0.2411,0.2418,0.2424,0.2471,0.2499,0.2513,0.2362,0.2362,0.2362,0,0,0.2189,0.2206,0.2209,0.223,0.2246,0.2272,0.2265,0.2288,0.2318,0.2298,0.2339,0.2341,0.2348,0.2383,0.2396,0.2384,0.2472,0.2427,0.2432,0.2477,0.2503,0.2518,0.2532,0.2364,0.2363,0.2363,0,0,0.2198,0.2205,0.2222,0.224,0.2271,0.2288,0.2295,0.2319,0.2338,0.2366,0.237,0.2399,0.2412,0.2442,0.2454,0.2501,0.2503,0.2498,0.2584,0.2609,0.2623,0.2634,0.2664,0.2678,0.2505,0.2505,0.2505,0,0.2192,0.2219,0.2229,0.2258,0.2279,0.2296,0.2323,0.235,0.2376,0.2408,0.2389,0.2453,0.2453,0.2519,0.2549,0.2521,0.2535,0.255,0.262,0.2632,0.2643,0.267,0.2685,0.2508,0.2508,0.2507,0.2507,0,0.2221,0.2244,0.2258,0.2303,0.2324,0.235,0.2386,0.2427,0.245,0.248,0.2544,0.2547,0.2591,0.2596,0.2595,0.2683,0.2665,0.2619,0.2602,0.2662,0.2686,0.2701,0.2513,0.2512,0.2511,0.251,0,0,0.2199,0.2263,0.2268,0.2292,0.235,0.2365,0.244,0.2506,0.2558,0.26,0.2663,0.272,0.273,0.2747,0.2741,0.2786,0.2869,0.2756,0.2755,0.2792,0.2938,0.2841,0.2846,0.2829,0.2832,0.2835,0.2919,0,0.2218,0.2264,0.2302,0.2353,0.2378,0.2434,0.2501,0.2568,0.2613,0.2679,0.273,0.2773,0.2779,0.2793,0.2848,0.2867,0.2913,0.2852,0.2871,0.2873,0.2784,0.2862,0.2658,0.2709,0.2933,0.2935,0.2937,0,0.2235,0.2268,0.2313,0.2383,0.24,0.2447,0.2548,0.2606,0.2721,0.276,0.2838,0.2852,0.296,0.2913,0.3031,0.2991,0.2993,0.2999,0.3,0.2911,0.2803,0.2686,0.2726,0.2961,0.2959,0.2957,0.2956,0,0.2205,0.2271,0.2305,0.2328,0.2419,0.2472,0.2531,0.2641,0.2704,0.2807,0.2856,0.2956,0.3007,0.3053,0.3091,0.3065,0.3188,0.3126,0.3045,0.3037,0.2873,0.2845,0.3198,0.3198,0.3197,0.3197,0.3197,0,0.2204,0.2229,0.2297,0.2319,0.2387,0.2452,0.2542,0.2622,0.2736,0.2804,0.2889,0.2943,0.3047,0.3112,0.3128,0.3152,0.3214,0.3105,0.3066,0.2884,0.2857,0.308,0.3065,0.32,0.32,0.3199,0.3199,0,0.2158,0.2208,0.2249,0.2338,0.2377,0.2418,0.2549,0.2601,0.2726,0.2813,0.2849,0.2982,0.306,0.3131,0.3205,0.3189,0.3208,0.318,0.2969,0.2904,0.3034,0.3022,0.3125,0.3122,0.312,0.3119,0.3117,0,0.2131,0.2158,0.224,0.2265,0.2309,0.2391,0.2452,0.2589,0.2636,0.2812,0.2834,0.2958,0.299,0.3093,0.31,0.3119,0.3155,0.2915,0.2827,0.3082,0.3034,0.3025,0.3015,0.2634,0.2629,0.2624,0.2621,0,0.209,0.2127,0.2157,0.2206,0.226,0.2315,0.24,0.2438,0.2585,0.2654,0.2723,0.2768,0.2893,0.2829,0.2879,0.2853,0.2902,0.2825,0.3161,0.2671,0.2622,0.2573,0.258,0.2582,0.2586,0.2589,0.2591,0.2593,0.2049,0.205,0.2093,0.2128,0.2182,0.2195,0.2201,0.2272,0.2324,0.2392,0.252,0.2536,0.2624,0.2588,0.2524,0.2504,0.269,0.2579,0.2592,0.2609,0.2525,0.2473,0.2391,0.2394,0.2396,0.2398,0.24,0,0.1965,0.1983,0.2009,0.203,0.2024,0.2097,0.2132,0.2106,0.2088,0.2199,0.2241,0.211,0.2097,0.2176,0.2103,0.2117,0.2093,0.2018,0.1973,0.2015,0.2051,0.1936,0.1647,0.1644,0.1641,0.1639,0,0,0.1929,0.1904,0.191,0.1868,0.1882,0.184,0.1827,0.1804,0.1856,0.1816,0.1835,0.2021,0.2137,0.1862,0.1845,0.1731,0.1851,0.1666,0.2283,0.2274,0.2306,0.2401,0.2274,0,0,0,0,0]},{"header":{"parameterUnit":"m.s-1","parameterCategory":2,"la1":30.2991,"la2":30.254,"lo1":-89.0895,"lo2":-89.0444,"dy":0.0017,"dx":0.0017,"nx":28,"ny":28,"refTime":"2023-11-03T21:00:00:Z","depth":"2","parameterNumber":3,"parameterNumberName":"V-component_of_CURRENTS"},"data":[0,0,0,0,0,0,0,0,0,0,0,0,0,0,0,0,0,0,0,0,0,0,0,0,0,0,0,0,0,0,0,0,0,0,0,0,0,0,0,0,0,0,0,0,0,0,0,0,0,0,0,0,0,0,0,0,0,0,0.0106,0.0106,0,0.0049,0.0048,0.0047,0.0011,0.0011,0.0011,0.0011,-0.005,-0.0052,-0.0053,0,0,0,0,0,0,0,0,0,0,0,0,0,0.0134,0.0134,0.0107,0.0106,0.0105,0.0049,0.0048,0.0047,0.0011,0.0011,0.0011,0.0011,-0.005,-0.0052,-0.0053,0,0,0,0,0,0,0,0,0,0,0,0,0,0.0104,0.0134,0.0107,0.0081,0.0078,0.0049,0.0048,0.0047,0.0012,0.0011,0.0011,0.0011,-0.0049,-0.0052,-0.0054,-0.0062,0,0,-0.006,-0.0061,0,0,0,0,0,0,0,0,0.0106,0.0103,0.0085,0.0082,0.0079,0.0037,0.0035,0.001,0.0012,0.0036,0.0011,0.0011,-0.0021,-0.0026,-0.0036,-0.0065,-0.0068,-0.0061,-0.0062,-0.0063,-0.0064,0,0,0,0,0,0,0,0.0108,0.0105,0.0083,0.0085,0.0081,0.0054,0.005,0.003,0.001,0.0034,0.0032,0.0026,-0.0023,-0.0034,-0.0038,-0.0069,-0.0061,-0.0063,-0.0064,-0.0065,-0.0116,-0.0116,0,0,0,0,0,0,0.0119,0.0107,0.0085,0.0082,0.0092,0.0054,0.005,0.0051,0.001,0.0003,0.0026,0.0024,-0.003,-0.0035,-0.004,-0.0047,-0.0063,-0.0065,-0.0066,-0.0116,-0.0116,-0.0116,0,0,0,0,0,0,0.012,0.0118,0.0088,0.0093,0.0087,0.0055,0.0056,0.005,0.0039,0.0004,-0.0003,0.0021,-0.0031,-0.0037,-0.0053,-0.005,-0.0066,-0.0068,-0.0116,-0.0116,-0.0116,-0.0064,0,0,0,0,0,0,0.0121,0.0118,0.0118,0.0094,0.0087,0.0078,0.0056,0.0049,0.0036,0.0033,-0.0003,-0.0009,-0.0031,-0.0049,-0.0055,-0.0053,-0.007,-0.0116,-0.0116,-0.0116,-0.0066,-0.0062,-0.0059,0,0,0,0,0,0.0122,0.013,0.0119,0.0116,0.009,0.0078,0.0073,0.0047,0.0036,0.0036,0.0012,-0.0008,-0.0054,-0.0051,-0.0058,-0.0056,-0.0116,-0.0116,-0.0116,-0.0067,-0.0063,-0.0059,0,0,0,0,0,0,0.014,0.0126,0.0114,0.0116,0.01,0.0072,0.0068,0.0051,0.0032,0.0028,-0.0004,-0.0012,-0.0027,-0.0049,-0.0044,-0.0073,-0.009,-0.0091,-0.005,-0.0047,-0.0044,-0.0055,-0.0072,0,0,0,0,0,0.0145,0.0147,0.0127,0.0127,0.0123,0.0096,0.0085,0.007,0.005,0.0041,0.0015,-0.0013,-0.0033,-0.0044,-0.0068,-0.0079,-0.0106,-0.0085,-0.0082,-0.0079,-0.0094,-0.0112,-0.0112,-0.0116,-0.0116,-0.0116,0,0,0.0152,0.0142,0.0144,0.013,0.0116,0.0118,0.0089,0.008,0.0084,0.0038,0.0032,-0.0002,-0.0034,-0.0048,-0.0057,-0.0065,-0.0092,-0.0079,-0.0076,-0.0093,-0.0112,-0.0112,-0.0111,-0.0117,-0.0116,-0.0116,0,0,0.0171,0.016,0.0171,0.0163,0.0146,0.0131,0.0132,0.0107,0.01,0.0085,0.0056,0.0023,-0.0009,-0.0032,-0.0046,-0.0041,-0.0074,-0.0048,-0.0041,-0.0057,-0.0057,-0.0057,-0.0088,-0.0092,-0.0046,-0.0046,-0.0046,0,0.0179,0.0191,0.0171,0.0178,0.0183,0.0143,0.0162,0.0146,0.0118,0.0117,0.009,0.0031,-0.0003,-0.0014,-0.0027,-0.0034,-0.0055,-0.0048,-0.0052,-0.0053,-0.0054,-0.0086,-0.009,-0.0043,-0.0044,-0.0044,-0.0044,0,0.0207,0.0217,0.0224,0.0225,0.0226,0.0233,0.0218,0.0201,0.0178,0.0164,0.0139,0.0082,0.0047,0.0027,-0.0007,-0.0028,-0.0044,-0.0043,-0.0058,-0.005,-0.0085,-0.009,-0.004,-0.0041,-0.0041,-0.0042,0,0,0.0235,0.0244,0.0248,0.0267,0.0257,0.0266,0.0264,0.0264,0.0274,0.0216,0.0222,0.0149,0.0108,0.0085,0.0042,0.0001,-0.0037,-0.0034,-0.0036,-0.0059,-0.0086,-0.0073,-0.0078,-0.0031,-0.0031,-0.0032,-0.0106,0,0.0267,0.0307,0.03,0.034,0.0367,0.0336,0.0347,0.0336,0.0317,0.0306,0.0236,0.022,0.0142,0.0118,0.0066,-0.0008,-0.005,-0.0018,-0.0097,-0.01,-0.0084,-0.0083,-0.0066,-0.0128,-0.0112,-0.0113,-0.0113,0,0.0304,0.033,0.0381,0.0418,0.0427,0.0435,0.0452,0.0459,0.0428,0.0409,0.036,0.0312,0.0231,0.017,0.004,0.0065,-0.0017,-0.0083,-0.0086,-0.0101,-0.0097,-0.0135,-0.0139,-0.0123,-0.0122,-0.0121,-0.0121,0,0.0354,0.0392,0.0441,0.0452,0.0475,0.0485,0.0494,0.0486,0.0509,0.0474,0.0469,0.0383,0.0335,0.0219,0.0077,0.0054,-0.0056,-0.0088,-0.0154,-0.0154,-0.0171,-0.0171,-0.0177,-0.0177,-0.0177,-0.0176,-0.0176,0,0.0401,0.0442,0.0465,0.049,0.0546,0.0547,0.0594,0.0581,0.0583,0.0628,0.0529,0.0532,0.0342,0.0261,0.0117,-0.0024,-0.0015,-0.0165,-0.0172,-0.0152,-0.0149,-0.0171,-0.0169,-0.0179,-0.0179,-0.0178,-0.0178,0,0.0452,0.0462,0.0521,0.0557,0.0568,0.0611,0.0654,0.0696,0.0677,0.0722,0.0711,0.0631,0.0521,0.0352,0.0172,0.0043,-0.0096,-0.0141,-0.0113,-0.0116,-0.0207,-0.0202,-0.0258,-0.0258,-0.0258,-0.0258,-0.0258,0,0.0486,0.0516,0.0572,0.0611,0.0626,0.068,0.0725,0.0735,0.0791,0.0801,0.0839,0.0741,0.0694,0.0437,0.02,-0.003,-0.006,-0.0161,-0.0213,-0.0214,-0.0215,-0.021,-0.0204,-0.0222,-0.0222,-0.0222,-0.0222,0,0.0547,0.0557,0.0601,0.0682,0.0736,0.0804,0.0871,0.0922,0.0955,0.0979,0.1014,0.0972,0.0736,0.0499,0.0196,0.0046,-0.013,-0.0166,-0.016,-0.0191,-0.0182,-0.0182,-0.0178,-0.022,-0.022,-0.022,-0.022,-0.0221,0.0586,0.0626,0.0678,0.0752,0.0825,0.0919,0.0976,0.1052,0.1125,0.1163,0.1147,0.1081,0.0825,0.042,0.0163,-0.0114,-0.0117,-0.0232,-0.0232,-0.0233,-0.0202,-0.0192,-0.0228,-0.0228,-0.0228,-0.0228,-0.0228,0,0.0634,0.0673,0.0749,0.0833,0.0922,0.0952,0.1069,0.1119,0.1203,0.1246,0.1244,0.1008,0.075,0.0465,0.0046,-0.0204,-0.0234,-0.0274,-0.0268,-0.0267,-0.0267,-0.0238,-0.0274,-0.0275,-0.0276,-0.0277,0,0,0.0653,0.0725,0.0757,0.0889,0.0958,0.106,0.1124,0.1198,0.1247,0.1261,0.1227,0.1167,0.0835,0.0525,0.0191,-0.0049,-0.0101,-0.0089,-0.0024,0.0023,0.0026,-0.0212,-0.0162,0,0,0,0,0]}],[{"header":{"parameterUnit":"m.s-1","parameterCategory":2,"la1":30.2991,"la2":30.254,"lo1":-89.0895,"lo2":-89.0444,"dy":0.0017,"dx":0.0017,"nx":28,"ny":28,"refTime":"2023-11-03T21:00:00:Z","depth":"4","parameterNumber":2,"parameterNumberName":"U-component_of_CURRENTS"},"data":[0,0,0,0,0,0,0,0,0,0,0,0,0,0,0,0,0,0,0,0,0,0,0,0,0,0,0,0,0,0,0,0,0,0,0,0,0,0,0,0,0,0,0,0,0,0,0,0,0,0,0,0,0,0,0,0,0,0,0.1329,0.1329,0,0.1378,0.1379,0.1379,0.1418,0.1419,0.1419,0.142,0.1467,0.1468,0.1469,0,0,0,0,0,0,0,0,0,0,0,0,0,0.1254,0.1255,0.1329,0.133,0.133,0.1378,0.1379,0.1379,0.1418,0.1419,0.1419,0.142,0.1467,0.1468,0.1469,0,0,0,0,0,0,0,0,0,0,0,0,0,0.1291,0.1255,0.1329,0.1357,0.136,0.1378,0.1379,0.1379,0.1418,0.1419,0.142,0.142,0.1467,0.1468,0.1469,0.1459,0,0,0.1472,0.1473,0,0,0,0,0,0,0,0,0.1289,0.1294,0.1352,0.1355,0.1358,0.1394,0.137,0.1407,0.1418,0.1394,0.142,0.1421,0.1443,0.1446,0.1451,0.1461,0.1463,0.1472,0.1473,0.1474,0.1474,0,0,0,0,0,0,0,0.1286,0.1292,0.1346,0.1353,0.1357,0.1362,0.1368,0.1377,0.1412,0.1396,0.1399,0.1408,0.1445,0.145,0.1453,0.1464,0.1472,0.1473,0.1474,0.1474,0.1554,0.1555,0,0,0,0,0,0,0.1284,0.1289,0.1345,0.1348,0.1327,0.1363,0.137,0.1381,0.1412,0.1418,0.1407,0.1409,0.1448,0.1451,0.1454,0.1514,0.1474,0.1475,0.1475,0.1552,0.1554,0.1556,0,0,0,0,0,0,0.1282,0.1289,0.1343,0.1321,0.1329,0.1364,0.1375,0.1381,0.1418,0.1421,0.1426,0.1441,0.1448,0.1453,0.1495,0.1514,0.1475,0.1476,0.1551,0.1553,0.1555,0.1589,0,0,0,0,0,0,0.128,0.1288,0.1308,0.1321,0.133,0.137,0.1375,0.1382,0.142,0.1425,0.1451,0.1455,0.1449,0.1493,0.1496,0.1514,0.1477,0.1549,0.1552,0.1554,0.1586,0.1592,0.1597,0,0,0,0,0,0.1277,0.1294,0.1308,0.1316,0.1352,0.1371,0.1376,0.1402,0.1422,0.1438,0.1466,0.1456,0.1512,0.1495,0.1498,0.1517,0.1547,0.1551,0.1554,0.1583,0.1591,0.1597,0,0,0,0,0,0,0.1272,0.1301,0.1316,0.1343,0.1365,0.1379,0.1402,0.142,0.1455,0.1471,0.1475,0.148,0.1523,0.152,0.1502,0.155,0.1527,0.1531,0.1549,0.1556,0.1561,0.1563,0.1478,0,0,0,0,0,0.1281,0.1304,0.1327,0.1351,0.1366,0.1392,0.141,0.1427,0.1453,0.1471,0.1489,0.1512,0.1532,0.1546,0.1561,0.1587,0.1595,0.1602,0.1608,0.1612,0.1617,0.1655,0.1665,0.1566,0.1566,0.1566,0,0,0.1284,0.1306,0.1319,0.1353,0.1375,0.1395,0.1405,0.144,0.1463,0.1469,0.1516,0.1535,0.1546,0.1577,0.1595,0.158,0.1646,0.1617,0.162,0.1623,0.166,0.1669,0.1678,0.1568,0.1568,0.1568,0,0,0.1292,0.1327,0.1345,0.1367,0.1406,0.142,0.1438,0.1469,0.1494,0.1537,0.1549,0.1584,0.1615,0.1622,0.163,0.1676,0.1677,0.1687,0.1712,0.1749,0.1757,0.1764,0.1788,0.1797,0.1686,0.1686,0.1686,0,0.1299,0.1325,0.1353,0.1376,0.1398,0.1435,0.1456,0.1482,0.1525,0.1545,0.156,0.1623,0.1633,0.1665,0.1685,0.1687,0.171,0.1682,0.1755,0.1763,0.177,0.1792,0.1801,0.1688,0.1687,0.1687,0.1687,0,0.1306,0.1342,0.1358,0.1398,0.1424,0.1453,0.1487,0.1523,0.1562,0.1583,0.1641,0.1665,0.1702,0.171,0.1714,0.1766,0.1768,0.176,0.1735,0.1781,0.1802,0.1811,0.1691,0.169,0.1689,0.1689,0,0,0.1279,0.135,0.1359,0.1383,0.1442,0.1457,0.1506,0.1546,0.1584,0.1631,0.1679,0.1718,0.1746,0.1758,0.1772,0.1801,0.1869,0.181,0.1811,0.1827,0.1956,0.1848,0.1848,0.1883,0.1885,0.1887,0.1951,0,0.1279,0.1322,0.136,0.1405,0.1427,0.148,0.1518,0.1562,0.1614,0.167,0.1706,0.1764,0.176,0.18,0.1829,0.1869,0.1897,0.1852,0.1914,0.1916,0.1809,0.1855,0.1893,0.1958,0.196,0.1961,0.1962,0,0.1268,0.1298,0.1344,0.1409,0.1425,0.1465,0.1536,0.1577,0.1656,0.1701,0.1764,0.1806,0.1871,0.1866,0.1944,0.1925,0.1949,0.1965,0.1968,0.186,0.1824,0.1903,0.1979,0.1978,0.1976,0.1975,0.1974,0,0.1215,0.1285,0.1324,0.1347,0.1423,0.1465,0.1514,0.1591,0.1634,0.1742,0.18,0.1866,0.1931,0.1971,0.2017,0.2001,0.2097,0.207,0.1986,0.1978,0.2041,0.2032,0.2121,0.2121,0.2121,0.212,0.212,0,0.1189,0.1217,0.1313,0.1329,0.1378,0.1447,0.1516,0.1575,0.1672,0.1726,0.1827,0.1886,0.1969,0.2031,0.2048,0.2049,0.2124,0.1998,0.1991,0.2053,0.2046,0.2047,0.2038,0.2123,0.2122,0.2122,0.2121,0,0.1125,0.1189,0.1231,0.1325,0.1358,0.1398,0.1513,0.1556,0.1671,0.1756,0.1802,0.1926,0.2012,0.207,0.2142,0.2082,0.2095,0.2074,0.2146,0.2141,0.1942,0.1934,0.1978,0.1974,0.1972,0.1969,0.1967,0,0.1096,0.1116,0.1217,0.125,0.1304,0.1379,0.1428,0.1541,0.1592,0.1761,0.1791,0.1926,0.1996,0.2008,0.2076,0.2097,0.2072,0.2053,0.1981,0.194,0.1929,0.1926,0.1921,0.1963,0.1962,0.1962,0.1961,0,0.1031,0.1084,0.1122,0.1193,0.1256,0.1309,0.1397,0.1421,0.1554,0.1671,0.1743,0.1797,0.1891,0.1938,0.1975,0.1982,0.2049,0.2024,0.2028,0.196,0.1923,0.1914,0.1913,0.1951,0.1953,0.1954,0.1954,0,0.0987,0.1001,0.1069,0.1124,0.1193,0.1226,0.1279,0.1347,0.1407,0.1586,0.1604,0.1755,0.1868,0.188,0.1915,0.1918,0.1882,0.18,0.1815,0.1827,0.1748,0.1677,0.163,0,0,0,0,0,0.0938,0.095,0.0995,0.1046,0.1112,0.1155,0.1249,0.1308,0.1435,0.1442,0.1516,0.1598,0.1665,0.174,0.1715,0.1853,0.1889,0.1813,0.1802,0.1899,0.191,0.1831,0,0,0,0,0,0,0.0903,0.0939,0.0963,0.0974,0.0999,0.1057,0.1114,0.1201,0.1211,0.1349,0.1396,0.1498,0.1591,0.1668,0.1685,0.1706,0.1664,0.19,0.1896,0.1893,0.1903,0.1911,0.1834,0,0,0,0,0]},{"header":{"parameterUnit":"m.s-1","parameterCategory":2,"la1":30.2991,"la2":30.254,"lo1":-89.0895,"lo2":-89.0444,"dy":0.0017,"dx":0.0017,"nx":28,"ny":28,"refTime":"2023-11-03T21:00:00:Z","depth":"4","parameterNumber":3,"parameterNumberName":"V-component_of_CURRENTS"},"data":[0,0,0,0,0,0,0,0,0,0,0,0,0,0,0,0,0,0,0,0,0,0,0,0,0,0,0,0,0,0,0,0,0,0,0,0,0,0,0,0,0,0,0,0,0,0,0,0,0,0,0,0,0,0,0,0,0,0,0.0196,0.0196,0,0.0163,0.0163,0.0163,0.0156,0.0156,0.0156,0.0157,0.0121,0.012,0.0118,0,0,0,0,0,0,0,0,0,0,0,0,0,0.0218,0.0217,0.0196,0.0196,0.0195,0.0163,0.0163,0.0163,0.0156,0.0156,0.0156,0.0157,0.0121,0.012,0.0118,0,0,0,0,0,0,0,0,0,0,0,0,0,0.0199,0.0217,0.0196,0.0188,0.0187,0.0164,0.0163,0.0163,0.0156,0.0156,0.0157,0.0157,0.0121,0.012,0.0118,0.0101,0,0,0.0113,0.0112,0,0,0,0,0,0,0,0,0.02,0.0199,0.019,0.0189,0.0187,0.0164,0.0157,0.0142,0.0156,0.0168,0.0157,0.0157,0.0134,0.0132,0.0125,0.0099,0.0098,0.0113,0.0112,0.0111,0.011,0,0,0,0,0,0,0,0.0202,0.02,0.0184,0.0189,0.0188,0.0173,0.0172,0.0154,0.015,0.0167,0.0166,0.0162,0.0134,0.0127,0.0124,0.0097,0.0113,0.0111,0.011,0.0109,0.0079,0.0079,0,0,0,0,0,0,0.0207,0.0201,0.0185,0.0183,0.0194,0.0173,0.0171,0.0171,0.015,0.0147,0.0162,0.0162,0.013,0.0126,0.0123,0.014,0.0111,0.0109,0.0108,0.0079,0.0079,0.008,0,0,0,0,0,0,0.0207,0.0206,0.0186,0.019,0.0187,0.0173,0.0173,0.017,0.0169,0.0146,0.0143,0.0164,0.013,0.0125,0.0117,0.0137,0.0108,0.0107,0.0079,0.0079,0.0079,0.0148,0,0,0,0,0,0,0.0208,0.0206,0.0208,0.0191,0.0187,0.0183,0.0172,0.017,0.0165,0.0165,0.0146,0.0143,0.013,0.012,0.0116,0.0134,0.0105,0.0078,0.0079,0.0079,0.0146,0.0151,0.0156,0,0,0,0,0,0.0209,0.0215,0.0209,0.0207,0.0191,0.0184,0.0181,0.0171,0.0165,0.017,0.0157,0.0144,0.012,0.0119,0.0113,0.0132,0.0078,0.0079,0.0079,0.0144,0.015,0.0155,0,0,0,0,0,0,0.0223,0.0214,0.0207,0.0209,0.0201,0.0183,0.0184,0.0174,0.0166,0.0166,0.0145,0.0141,0.0142,0.0122,0.0121,0.0123,0.0097,0.0097,0.0148,0.0154,0.0159,0.0181,0.0104,0,0,0,0,0,0.0227,0.0232,0.0217,0.0219,0.0217,0.02,0.0195,0.0188,0.0177,0.0174,0.016,0.0145,0.0138,0.0135,0.0121,0.0119,0.0092,0.0126,0.0131,0.0135,0.0149,0.0122,0.0126,0.0081,0.0081,0.0081,0,0,0.0233,0.0228,0.0231,0.0223,0.0215,0.0222,0.0199,0.0196,0.0207,0.017,0.0179,0.016,0.014,0.0144,0.0143,0.0132,0.0131,0.0136,0.014,0.0151,0.0123,0.0127,0.0131,0.0082,0.0082,0.0082,0,0,0.0252,0.0244,0.0256,0.0254,0.0245,0.0237,0.0239,0.0224,0.0225,0.0224,0.0206,0.02,0.0181,0.0179,0.0174,0.0194,0.0157,0.0185,0.0232,0.0206,0.0209,0.0212,0.0176,0.0175,0.0189,0.019,0.019,0,0.0258,0.0274,0.0258,0.027,0.0277,0.0249,0.0268,0.0263,0.0248,0.0257,0.0237,0.0223,0.0203,0.0221,0.023,0.0209,0.018,0.0215,0.0214,0.0216,0.0218,0.018,0.0178,0.0193,0.0193,0.0192,0.0192,0,0.0288,0.0302,0.0309,0.0321,0.0323,0.0334,0.0327,0.0332,0.0324,0.0318,0.0326,0.0295,0.0291,0.0282,0.0264,0.0275,0.0243,0.0222,0.0203,0.0227,0.0184,0.0181,0.0198,0.0197,0.0196,0.0195,0,0,0.0304,0.0328,0.0331,0.0354,0.0355,0.0364,0.0386,0.0403,0.0424,0.0403,0.0426,0.0412,0.0388,0.0381,0.0353,0.0333,0.0316,0.0289,0.0286,0.0261,0.0247,0.0202,0.0193,0.0291,0.0291,0.0291,0.0209,0,0.0335,0.0378,0.0379,0.0425,0.045,0.0445,0.0471,0.0481,0.0477,0.0487,0.0462,0.0464,0.0428,0.0423,0.0401,0.0336,0.0312,0.034,0.022,0.0217,0.0181,0.019,0.0292,0.0206,0.0205,0.0205,0.0204,0,0.0368,0.0396,0.0447,0.0495,0.0506,0.0528,0.0571,0.0592,0.0598,0.0592,0.0586,0.0551,0.0531,0.0485,0.0401,0.0417,0.0344,0.0288,0.0283,0.0219,0.0167,0.0177,0.0198,0.0199,0.0199,0.02,0.02,0,0.0398,0.0446,0.0496,0.051,0.0552,0.0583,0.0609,0.0628,0.0656,0.0657,0.0659,0.0623,0.0596,0.0515,0.0397,0.0397,0.0285,0.0266,0.0159,0.0154,0.0189,0.0187,0.0208,0.0208,0.0208,0.0208,0.0208,0,0.0434,0.0475,0.0517,0.0545,0.0612,0.0628,0.0692,0.0707,0.073,0.0757,0.0716,0.0707,0.06,0.0518,0.0415,0.0273,0.0294,0.0171,0.0134,0.0217,0.0219,0.0186,0.0185,0.0205,0.0206,0.0206,0.0207,0,0.0458,0.0485,0.0546,0.0603,0.0628,0.0676,0.0745,0.0785,0.08,0.0827,0.0826,0.0766,0.0654,0.0532,0.0384,0.029,0.0163,0.0106,0.0199,0.0167,0.0046,0.0049,-0.0012,-0.0014,-0.0016,-0.0018,-0.0019,0,0.0473,0.0508,0.0584,0.0622,0.0651,0.0725,0.0774,0.0817,0.0849,0.0854,0.0858,0.0769,0.0706,0.0468,0.0338,0.0136,0.0103,0.0035,0.0053,0.0056,0.0025,0.0031,0.0037,-0.0022,-0.0022,-0.0023,-0.0023,0,0.05,0.0527,0.0571,0.0647,0.0707,0.078,0.0845,0.0872,0.0909,0.0923,0.0866,0.075,0.0617,0.0447,0.0284,0.0142,0.0082,0.0015,0.0019,0.0035,0.0043,0.0016,0.0023,-0.003,-0.0029,-0.0028,-0.0028,0,0.0509,0.054,0.0593,0.0658,0.0736,0.0798,0.0844,0.0869,0.0902,0.0898,0.0872,0.0742,0.0671,0.0448,0.0301,0.0153,0.0118,0.007,0.0069,0.0075,0.0122,0.0147,0.0079,0,0,0,0,0,0.0508,0.0536,0.06,0.0663,0.074,0.0783,0.0869,0.0906,0.0939,0.0896,0.0885,0.0757,0.0533,0.0447,0.0289,0.0265,0.0093,0.0074,0.0038,-0.0065,-0.0058,-0.0021,0,0,0,0,0,0,0.0502,0.0556,0.0586,0.0652,0.0693,0.0776,0.0832,0.0862,0.0841,0.0851,0.0738,0.0693,0.0484,0.0609,0.0273,0.0232,0.0182,-0.002,-0.0024,-0.0069,-0.0063,-0.0057,-0.0016,0,0,0,0,0]}]]